Weather History for PABL - May, 2013

Change the Weather History Date:

Saturday, May 25, 2013

  Actual Average (PASK) Record (PASK)
Temperature  
Mean Temperature 44 °F -  
Max Temperature 53 °F 43 °F 73 °F (2002)
Min Temperature 35 °F 29 °F 24 °F (2001)
Degree Days  
Heating Degree Days 21    
Moisture  
Dew Point 33 °F    
Average Humidity 68    
Maximum Humidity 81    
Minimum Humidity 50    
Precipitation  
Precipitation 0.00 in - - ()
Sea Level Pressure  
Sea Level Pressure 29.96 in    
Wind  
Wind Speed 4 mph (NW)    
Max Wind Speed 15 mph    
Max Gust Speed -    
Visibility 10 miles    
Events      
Averages and records for this station are not official NWS values.
T = Trace of Precipitation, MM = Missing Value Source: NWS Daily Summary

Daily Weather History Graph

Daily Weather History Graph

Search for Another Location

Airport or City:

Trip Planner

Search our weather history database for the weather conditions in past years. The results will help you decide how hot, cold, wet, or windy it might be!

Date:

Astronomy

May. 25, 2013 Rise Set
Actual Time 4:24 AM AKDT 1:02 AM AKDT
Civil Twilight Sun does not set Sun does not set
Nautical Twilight Sun does not set Sun does not set
Astronomical Twilight Sun does not set Sun does not set
Moon 12:29 AM AKDT (5/25) 5:25 AM AKDT (5/25)
Length of Visible Light 24h 00m
Length of Day
20h 38m
Full, 99% of the Moon is Illuminated
May 25
Full
May 31
Last Quarter
Jun 8
New
Jun 16
First Quarter
Jun 23
Full

Hourly Weather History & Observations

Time (AKDT) Temp. Windchill Dew Point Humidity Pressure Visibility Wind Dir Wind Speed Gust Speed Precip Events Conditions
12:16 AM 41.0 °F - 32.0 °F 70% 30.07 in 10.0 mi Calm Calm - N/A   Overcast
12:36 AM 39.2 °F - 32.0 °F 75% 30.07 in 10.0 mi Calm Calm - N/A   Overcast
12:56 AM 39.2 °F - 32.0 °F 75% 30.07 in 10.0 mi Calm Calm - N/A   Overcast
1:16 AM 39.2 °F 37.0 °F 30.2 °F 70% 30.07 in 10.0 mi East 3.5 mph - N/A   Overcast
1:36 AM 37.4 °F - 30.2 °F 75% 30.07 in 10.0 mi Calm Calm - N/A   Overcast
1:56 AM 37.4 °F 34.9 °F 32.0 °F 81% 30.07 in 5.0 mi SSW 3.5 mph - N/A   Overcast
2:16 AM 37.4 °F - 30.2 °F 75% 30.06 in 10.0 mi Calm Calm - N/A   Overcast
2:36 AM 37.4 °F - 30.2 °F 75% 30.06 in 10.0 mi Calm Calm - N/A   Overcast
2:56 AM 37.4 °F 34.9 °F 30.2 °F 75% 30.05 in 10.0 mi ESE 3.5 mph - N/A   Overcast
3:16 AM 37.4 °F - 32.0 °F 81% 30.05 in 10.0 mi Calm Calm - N/A   Overcast
3:36 AM 35.6 °F - 30.2 °F 81% 30.04 in 10.0 mi Calm Calm - N/A   Overcast
3:56 AM 35.6 °F - 30.2 °F 81% 30.04 in 10.0 mi Calm Calm - N/A   Overcast
4:16 AM 35.6 °F - 30.2 °F 81% 30.03 in 10.0 mi Calm Calm - N/A   Overcast
4:36 AM 35.6 °F - 30.2 °F 81% 30.02 in 10.0 mi Calm Calm - N/A   Overcast
4:56 AM 35.6 °F - 30.2 °F 81% 30.02 in 10.0 mi Calm Calm - N/A   Overcast
5:16 AM 35.6 °F 32.8 °F 30.2 °F 81% 30.02 in 10.0 mi South 3.5 mph - N/A   Overcast
5:36 AM 35.6 °F 32.8 °F 30.2 °F 81% 30.01 in 10.0 mi ESE 3.5 mph - N/A   Overcast
5:56 AM 35.6 °F 30.7 °F 30.2 °F 81% 30.01 in 10.0 mi South 5.8 mph - N/A   Overcast
6:16 AM 35.6 °F 30.7 °F 30.2 °F 81% 30.01 in 10.0 mi South 5.8 mph - N/A   Overcast
6:36 AM 35.6 °F 32.8 °F 30.2 °F 81% 30.01 in 10.0 mi South 3.5 mph - N/A   Overcast
6:56 AM 37.4 °F - 32.0 °F 81% 30.01 in 10.0 mi Calm Calm - N/A   Overcast
7:16 AM 37.4 °F 34.9 °F 32.0 °F 81% 30.00 in 10.0 mi East 3.5 mph - N/A   Overcast
7:36 AM 39.2 °F - 32.0 °F 75% 30.00 in 10.0 mi Calm Calm - N/A   Overcast
7:56 AM 39.2 °F - 32.0 °F 75% 30.00 in 10.0 mi Calm Calm - N/A   Overcast
8:16 AM 39.2 °F - 33.8 °F 81% 30.01 in 10.0 mi Calm Calm - N/A   Overcast
8:36 AM 39.2 °F 35.0 °F 33.8 °F 81% 30.00 in 10.0 mi North 5.8 mph - N/A   Overcast
8:56 AM 41.0 °F 37.1 °F 33.8 °F 76% 30.00 in 10.0 mi North 5.8 mph - N/A   Overcast
9:16 AM 42.8 °F 39.3 °F 33.8 °F 70% 30.01 in 10.0 mi NNW 5.8 mph - N/A   Overcast
9:36 AM 42.8 °F 39.3 °F 33.8 °F 70% 30.00 in 10.0 mi NNW 5.8 mph - N/A   Overcast
9:56 AM 42.8 °F 38.6 °F 33.8 °F 70% 29.99 in 10.0 mi NNW 6.9 mph - N/A   Overcast
10:16 AM 42.8 °F 39.3 °F 33.8 °F 70% 29.99 in 10.0 mi NNW 5.8 mph - N/A   Overcast
10:36 AM 42.8 °F 38.6 °F 33.8 °F 70% 29.99 in 10.0 mi NNW 6.9 mph - N/A   Overcast
10:56 AM 42.8 °F 39.3 °F 33.8 °F 70% 29.98 in 10.0 mi NW 5.8 mph - N/A   Overcast
11:16 AM 44.6 °F 41.4 °F 33.8 °F 66% 29.98 in 10.0 mi NW 5.8 mph - N/A   Overcast
11:36 AM 46.4 °F 42.4 °F 33.8 °F 62% 29.97 in 10.0 mi NNW 8.1 mph - N/A   Overcast
11:56 AM 46.4 °F 42.9 °F 33.8 °F 62% 29.97 in 10.0 mi NNW 6.9 mph - N/A   Overcast
12:16 PM 48.2 °F - 33.8 °F 58% 29.97 in 10.0 mi NNW 9.2 mph - N/A   Overcast
12:36 PM 48.2 °F - 33.8 °F 58% 29.96 in 10.0 mi NNW 8.1 mph - N/A   Overcast
12:56 PM 50.0 °F - 33.8 °F 54% 29.96 in 10.0 mi NNW 6.9 mph - N/A   Overcast
1:16 PM 50.0 °F - 35.6 °F 58% 29.95 in 10.0 mi NNW 6.9 mph - N/A   Overcast
1:36 PM 51.8 °F - 33.8 °F 50% 29.95 in 10.0 mi NW 8.1 mph - N/A   Overcast
1:56 PM 51.8 °F - 33.8 °F 50% 29.94 in 10.0 mi NNW 9.2 mph - N/A   Overcast
2:16 PM 51.8 °F - 33.8 °F 50% 29.94 in 10.0 mi NNW 9.2 mph - N/A   Overcast
2:36 PM 51.8 °F - 35.6 °F 54% 29.93 in 10.0 mi NNW 10.4 mph - N/A   Overcast
2:56 PM 51.8 °F - 35.6 °F 54% 29.92 in 10.0 mi NNW 11.5 mph - N/A   Overcast
3:16 PM 51.8 °F - 35.6 °F 54% 29.92 in 10.0 mi NNW 10.4 mph - N/A   Overcast
3:36 PM 53.6 °F - 35.6 °F 51% 29.92 in 10.0 mi NNW 10.4 mph - N/A   Overcast
3:56 PM 51.8 °F - 35.6 °F 54% 29.92 in 10.0 mi NNW 10.4 mph - N/A   Overcast
4:16 PM 51.8 °F - 35.6 °F 54% 29.91 in 10.0 mi NNW 11.5 mph - N/A   Overcast
4:36 PM 53.6 °F - 35.6 °F 51% 29.91 in 10.0 mi NNW 10.4 mph - N/A   Overcast
4:56 PM 53.6 °F - 35.6 °F 51% 29.90 in 10.0 mi NW 9.2 mph - N/A   Overcast
5:16 PM 53.6 °F - 35.6 °F 51% 29.90 in 10.0 mi NNW 8.1 mph - N/A   Overcast
5:36 PM 53.6 °F - 35.6 °F 51% 29.89 in 10.0 mi WNW 11.5 mph - N/A   Overcast
5:56 PM 51.8 °F - 37.4 °F 58% 29.89 in 10.0 mi NW 11.5 mph - N/A   Overcast
6:16 PM 53.6 °F - 37.4 °F 54% 29.88 in 10.0 mi WNW 12.7 mph - N/A   Overcast
6:36 PM 53.6 °F - 37.4 °F 54% 29.87 in 10.0 mi WNW 11.5 mph - N/A   Overcast
6:56 PM 51.8 °F - 37.4 °F 58% 29.87 in 10.0 mi WNW 12.7 mph - N/A   Mostly Cloudy
7:16 PM 51.8 °F - 37.4 °F 58% 29.87 in 10.0 mi WNW 13.8 mph - N/A   Overcast
7:36 PM 48.2 °F - 35.6 °F 62% 29.87 in 10.0 mi WNW 12.7 mph - N/A   Overcast
7:56 PM 48.2 °F - 35.6 °F 62% 29.87 in 10.0 mi NW 15.0 mph - N/A   Overcast
8:16 PM 46.4 °F 40.7 °F 35.6 °F 66% 29.87 in 10.0 mi NW 12.7 mph - N/A   Overcast
8:36 PM 46.4 °F 41.1 °F 35.6 °F 66% 29.87 in 10.0 mi NW 11.5 mph - N/A   Overcast
8:56 PM 44.6 °F 38.4 °F 35.6 °F 71% 29.87 in 10.0 mi NW 12.7 mph - N/A   Overcast
9:16 PM 44.6 °F 38.8 °F 33.8 °F 66% 29.86 in 10.0 mi NW 11.5 mph - N/A   Overcast
9:36 PM 44.6 °F 39.2 °F 33.8 °F 66% 29.86 in 10.0 mi NW 10.4 mph - N/A   Overcast
9:56 PM 44.6 °F 40.2 °F 33.8 °F 66% 29.86 in 10.0 mi NW 8.1 mph - N/A   Overcast
10:16 PM 44.6 °F 40.2 °F 33.8 °F 66% 29.87 in 10.0 mi NW 8.1 mph - N/A   Overcast
10:36 PM 42.8 °F 37.0 °F 33.8 °F 70% 29.87 in 10.0 mi NW 10.4 mph - N/A   Overcast
10:56 PM 42.8 °F 37.5 °F 33.8 °F 70% 29.87 in 10.0 mi NW 9.2 mph - N/A   Overcast
11:16 PM 41.0 °F 36.4 °F 33.8 °F 76% 29.86 in 10.0 mi NNW 6.9 mph - N/A   Overcast
11:36 PM 39.2 °F 35.0 °F 32.0 °F 75% 29.86 in 10.0 mi NNW 5.8 mph - N/A   Overcast
11:56 PM 39.2 °F 34.2 °F 32.0 °F 75% 29.87 in 10.0 mi NNW 6.9 mph - N/A   Overcast